Location: Newark
(35.2672°N, 80.7344°W)
Time: 10:39:47
(UTC+00:00)

Vanguard 1 - Pass Details

Date: 26 January 2020
Orbit: 650 x 3833 km, 34.2° (Epoch: 25 February)

Event Time Altitude Azimuth Distance (km) Brightness Sun altitude
Rises 02:31:30 0° 277° (W) 3,295 13.5 -46.4°
Reaches altitude 10° 02:33:37 10° 271° (W) 2,548 12.7 -46.8°
Enters shadow 02:34:14 14° 268° (W) 2,353 12.5 -46.9°
